Time,TemperatureF,DewpointF,PressureIn,WindDirection,WindDirectionDegrees,WindSpeedMPH,WindSpeedGustMPH,Humidity,HourlyPrecipIn,Conditions,Clouds,dailyrainin,SoftwareType,DateUTC
2013-01-15 00:02:00,11.0,8.0,30.36,SSE,162,3.0,8.0,86,0.00,,,0.00,,2013-01-15 06:02:00,
2013-01-15 00:12:00,11.0,8.0,30.36,SSE,162,3.0,8.0,86,0.00,,,0.00,,2013-01-15 06:12:00,
2013-01-15 00:22:00,13.0,9.0,30.35,SW,224,7.0,11.0,85,0.00,,,0.00,,2013-01-15 06:22:00,
2013-01-15 00:33:00,15.0,11.0,30.35,SSW,212,8.0,13.0,82,0.00,,,0.00,,2013-01-15 06:33:00,
2013-01-15 00:42:00,15.0,11.0,30.35,SSW,212,8.0,13.0,82,0.00,,,0.00,,2013-01-15 06:42:00,
2013-01-15 00:52:00,15.0,10.0,30.35,SW,219,10.0,16.0,81,0.00,,,0.00,,2013-01-15 06:52:00,
2013-01-15 01:02:00,15.0,10.0,30.35,SW,219,10.0,16.0,81,0.00,,,0.00,,2013-01-15 07:02:00,
2013-01-15 01:12:00,15.0,10.0,30.35,SW,219,10.0,16.0,81,0.00,,,0.00,,2013-01-15 07:12:00,
2013-01-15 01:22:00,15.0,10.0,30.35,SW,219,10.0,16.0,81,0.00,,,0.00,,2013-01-15 07:22:00,
2013-01-15 01:53:00,16.0,11.0,30.34,SW,225,10.0,13.0,79,0.00,,,0.00,,2013-01-15 07:53:00,
2013-01-15 02:02:00,16.0,11.0,30.35,WSW,252,5.0,14.0,80,0.00,,,0.00,,2013-01-15 08:02:00,
2013-01-15 02:12:00,16.0,11.0,30.35,WSW,252,5.0,14.0,80,0.00,,,0.00,,2013-01-15 08:12:00,
2013-01-15 02:22:00,15.0,10.0,30.35,SW,235,6.0,8.0,81,0.00,,,0.00,,2013-01-15 08:22:00,
2013-01-15 02:33:00,15.0,11.0,30.35,SW,233,6.0,8.0,82,0.00,,,0.00,,2013-01-15 08:33:00,
2013-01-15 02:42:00,15.0,11.0,30.35,SW,233,6.0,8.0,82,0.00,,,0.00,,2013-01-15 08:42:00,
2013-01-15 02:53:00,15.0,11.0,30.35,SW,233,6.0,8.0,82,0.00,,,0.00,,2013-01-15 08:53:00,
2013-01-15 03:02:00,14.0,10.0,30.35,SW,226,6.0,9.0,82,0.00,,,0.00,,2013-01-15 09:02:00,
2013-01-15 03:12:00,14.0,10.0,30.35,SW,226,6.0,9.0,82,0.00,,,0.00,,2013-01-15 09:12:00,
2013-01-15 03:22:00,14.0,10.0,30.35,SW,224,6.0,8.0,83,0.00,,,0.00,,2013-01-15 09:22:00,
2013-01-15 03:33:00,13.0,9.0,30.35,SW,231,4.0,7.0,84,0.00,,,0.00,,2013-01-15 09:33:00,
2013-01-15 03:42:00,13.0,9.0,30.35,SW,231,4.0,7.0,84,0.00,,,0.00,,2013-01-15 09:42:00,
2013-01-15 03:52:00,13.0,9.0,30.34,SW,225,4.0,5.0,84,0.00,,,0.00,,2013-01-15 09:52:00,
2013-01-15 04:02:00,13.0,9.0,30.34,SW,225,4.0,5.0,84,0.00,,,0.00,,2013-01-15 10:02:00,
2013-01-15 04:12:00,13.0,9.0,30.34,SW,225,4.0,5.0,84,0.00,,,0.00,,2013-01-15 10:12:00,
2013-01-15 04:22:00,13.0,9.0,30.33,SW,221,4.0,5.0,85,0.00,,,0.00,,2013-01-15 10:22:00,
2013-01-15 04:32:00,12.0,8.0,30.33,SW,220,1.0,4.0,84,0.00,,,0.00,,2013-01-15 10:32:00,
2013-01-15 04:42:00,12.0,8.0,30.33,SW,220,1.0,4.0,84,0.00,,,0.00,,2013-01-15 10:42:00,
2013-01-15 04:52:00,13.0,10.0,30.32,SSW,208,4.0,6.0,86,0.00,,,0.00,,2013-01-15 10:52:00,
2013-01-15 05:02:00,12.0,8.0,30.32,SSW,207,4.0,6.0,85,0.00,,,0.00,,2013-01-15 11:02:00,
2013-01-15 05:12:00,12.0,8.0,30.32,SSW,207,4.0,6.0,85,0.00,,,0.00,,2013-01-15 11:12:00,
2013-01-15 05:22:00,12.0,9.0,30.31,SW,217,1.0,4.0,86,0.00,,,0.00,,2013-01-15 11:22:00,
2013-01-15 05:33:00,12.0,9.0,30.31,SW,217,1.0,4.0,86,0.00,,,0.00,,2013-01-15 11:33:00,
2013-01-15 05:42:00,12.0,9.0,30.31,SW,217,1.0,4.0,86,0.00,,,0.00,,2013-01-15 11:42:00,
2013-01-15 05:53:00,11.0,8.0,30.31,SW,233,0.0,1.0,88,0.00,,,0.00,,2013-01-15 11:53:00,
2013-01-15 06:03:00,11.0,8.0,30.31,South,172,0.0,3.0,88,0.00,,,0.00,,2013-01-15 12:03:00,
2013-01-15 06:12:00,11.0,8.0,30.31,South,172,0.0,3.0,88,0.00,,,0.00,,2013-01-15 12:12:00,
2013-01-15 06:22:00,10.0,7.0,30.31,SE,138,0.0,2.0,88,0.00,,,0.00,,2013-01-15 12:22:00,
2013-01-15 06:33:00,11.0,8.0,30.31,SSW,195,2.0,5.0,88,0.00,,,0.00,,2013-01-15 12:33:00,
2013-01-15 06:42:00,11.0,8.0,30.31,SSW,195,2.0,5.0,88,0.00,,,0.00,,2013-01-15 12:42:00,
2013-01-15 06:53:00,11.0,8.0,30.31,SSW,195,2.0,5.0,88,0.00,,,0.00,,2013-01-15 12:53:00,
2013-01-15 07:03:00,11.0,8.0,30.31,South,170,2.0,5.0,87,0.00,,,0.00,,2013-01-15 13:03:00,
2013-01-15 07:12:00,11.0,8.0,30.31,South,170,2.0,5.0,87,0.00,,,0.00,,2013-01-15 13:12:00,
2013-01-15 07:23:00,11.0,8.0,30.31,SSW,208,1.0,4.0,87,0.00,,,0.00,,2013-01-15 13:23:00,
2013-01-15 07:33:00,10.0,7.0,30.31,South,174,2.0,5.0,88,0.00,,,0.00,,2013-01-15 13:33:00,
2013-01-15 07:43:00,10.0,7.0,30.31,South,174,2.0,5.0,88,0.00,,,0.00,,2013-01-15 13:43:00,
2013-01-15 07:53:00,10.0,7.0,30.31,SSW,198,2.0,4.0,88,0.00,,,0.00,,2013-01-15 13:53:00,
2013-01-15 08:02:00,10.0,7.0,30.31,SSW,198,2.0,4.0,88,0.00,,,0.00,,2013-01-15 14:02:00,
2013-01-15 08:12:00,10.0,7.0,30.31,SSW,198,2.0,4.0,88,0.00,,,0.00,,2013-01-15 14:12:00,
2013-01-15 08:23:00,11.0,8.0,30.30,SSW,194,2.0,4.0,87,0.00,,,0.00,,2013-01-15 14:23:00,
2013-01-15 08:33:00,12.0,8.0,30.31,SSW,210,1.0,3.0,85,0.00,,,0.00,,2013-01-15 14:33:00,
2013-01-15 08:43:00,12.0,8.0,30.31,SSW,210,1.0,3.0,85,0.00,,,0.00,,2013-01-15 14:43:00,
2013-01-15 08:53:00,12.0,8.0,30.30,SE,141,3.0,6.0,85,0.00,,,0.00,,2013-01-15 14:53:00,
2013-01-15 09:03:00,12.0,8.0,30.30,SSW,198,4.0,6.0,85,0.00,,,0.00,,2013-01-15 15:03:00,
2013-01-15 09:12:00,12.0,8.0,30.30,SSW,198,4.0,6.0,85,0.00,,,0.00,,2013-01-15 15:12:00,
2013-01-15 09:23:00,13.0,9.0,30.30,SSW,202,2.0,8.0,84,0.00,,,0.00,,2013-01-15 15:23:00,
2013-01-15 09:33:00,14.0,10.0,30.30,SSW,198,3.0,6.0,84,0.00,,,0.00,,2013-01-15 15:33:00,
2013-01-15 09:43:00,14.0,10.0,30.30,SSW,198,3.0,6.0,84,0.00,,,0.00,,2013-01-15 15:43:00,
2013-01-15 09:53:00,14.0,10.0,30.30,SSW,198,3.0,6.0,84,0.00,,,0.00,,2013-01-15 15:53:00,
2013-01-15 10:03:00,16.0,11.0,30.29,SW,229,9.0,14.0,82,0.00,,,0.00,,2013-01-15 16:03:00,
2013-01-15 10:12:00,16.0,11.0,30.29,SW,229,9.0,14.0,82,0.00,,,0.00,,2013-01-15 16:12:00,
2013-01-15 10:22:00,17.0,12.0,30.29,SSW,208,11.0,14.0,79,0.00,,,0.00,,2013-01-15 16:22:00,
2013-01-15 10:33:00,18.0,12.0,30.29,SW,228,8.0,14.0,78,0.00,,,0.00,,2013-01-15 16:33:00,
2013-01-15 10:42:00,18.0,12.0,30.29,SW,228,8.0,14.0,78,0.00,,,0.00,,2013-01-15 16:42:00,
2013-01-15 10:53:00,20.0,14.0,30.28,SW,227,10.0,13.0,76,0.00,,,0.00,,2013-01-15 16:53:00,
2013-01-15 11:03:00,20.0,14.0,30.28,SW,227,10.0,13.0,76,0.00,,,0.00,,2013-01-15 17:03:00,
2013-01-15 11:12:00,20.0,14.0,30.28,SW,227,10.0,13.0,76,0.00,,,0.00,,2013-01-15 17:12:00,
2013-01-15 11:22:00,21.0,14.0,30.27,SW,226,11.0,18.0,75,0.00,,,0.00,,2013-01-15 17:22:00,
2013-01-15 11:33:00,22.0,15.0,30.26,SW,224,13.0,17.0,75,0.00,,,0.00,,2013-01-15 17:33:00,
2013-01-15 11:42:00,22.0,15.0,30.26,SW,224,13.0,17.0,75,0.00,,,0.00,,2013-01-15 17:42:00,
2013-01-15 11:53:00,23.0,16.0,30.25,SW,222,10.0,16.0,74,0.00,,,0.00,,2013-01-15 17:53:00,
2013-01-15 12:03:00,23.0,15.0,30.24,WSW,243,13.0,16.0,71,0.00,,,0.00,,2013-01-15 18:03:00,
2013-01-15 12:13:00,23.0,15.0,30.24,WSW,243,13.0,16.0,71,0.00,,,0.00,,2013-01-15 18:13:00,
2013-01-15 12:23:00,23.0,15.0,30.24,WSW,243,13.0,16.0,71,0.00,,,0.00,,2013-01-15 18:23:00,
2013-01-15 12:33:00,23.0,15.0,30.24,WSW,243,13.0,16.0,71,0.00,,,0.00,,2013-01-15 18:33:00,
2013-01-15 12:43:00,23.0,15.0,30.24,WSW,243,13.0,16.0,71,0.00,,,0.00,,2013-01-15 18:43:00,
2013-01-15 12:53:00,25.0,17.0,30.22,SW,218,12.0,16.0,71,0.00,,,0.00,,2013-01-15 18:53:00,
2013-01-15 13:03:00,25.0,17.0,30.21,WSW,242,12.0,20.0,71,0.00,,,0.00,,2013-01-15 19:03:00,
2013-01-15 13:12:00,25.0,17.0,30.21,WSW,242,12.0,20.0,71,0.00,,,0.00,,2013-01-15 19:12:00,
2013-01-15 13:23:00,26.0,17.0,30.19,SW,235,14.0,18.0,68,0.00,,,0.00,,2013-01-15 19:23:00,
2013-01-15 13:33:00,26.0,17.0,30.19,SW,235,14.0,18.0,68,0.00,,,0.00,,2013-01-15 19:33:00,
2013-01-15 13:42:00,26.0,17.0,30.19,SW,235,14.0,18.0,68,0.00,,,0.00,,2013-01-15 19:42:00,
2013-01-15 13:53:00,27.0,17.0,30.18,SW,222,17.0,21.0,65,0.00,,,0.00,,2013-01-15 19:53:00,
2013-01-15 14:03:00,28.0,19.0,30.17,WSW,238,12.0,18.0,68,0.00,,,0.00,,2013-01-15 20:03:00,
2013-01-15 14:12:00,28.0,19.0,30.17,WSW,238,12.0,18.0,68,0.00,,,0.00,,2013-01-15 20:12:00,
2013-01-15 14:23:00,28.0,18.0,30.16,WSW,240,16.0,24.0,65,0.00,,,0.00,,2013-01-15 20:23:00,
2013-01-15 14:33:00,29.0,19.0,30.16,SW,228,14.0,22.0,67,0.00,,,0.00,,2013-01-15 20:33:00,
2013-01-15 14:43:00,29.0,19.0,30.16,SW,228,14.0,22.0,67,0.00,,,0.00,,2013-01-15 20:43:00,
2013-01-15 14:52:00,29.0,19.0,30.16,SW,228,14.0,22.0,67,0.00,,,0.00,,2013-01-15 20:52:00,
2013-01-15 15:03:00,29.0,19.0,30.15,WSW,238,16.0,18.0,67,0.00,,,0.00,,2013-01-15 21:03:00,
2013-01-15 15:13:00,29.0,19.0,30.15,WSW,238,16.0,18.0,67,0.00,,,0.00,,2013-01-15 21:13:00,
2013-01-15 15:23:00,29.0,19.0,30.15,SW,235,17.0,22.0,65,0.00,,,0.00,,2013-01-15 21:23:00,
2013-01-15 15:33:00,29.0,19.0,30.14,SW,229,13.0,21.0,67,0.00,,,0.00,,2013-01-15 21:33:00,
2013-01-15 15:43:00,29.0,19.0,30.14,SW,229,13.0,21.0,67,0.00,,,0.00,,2013-01-15 21:43:00,
2013-01-15 15:52:00,29.0,19.0,30.14,SW,236,17.0,22.0,65,0.00,,,0.00,,2013-01-15 21:52:00,
2013-01-15 16:03:00,29.0,18.0,30.13,SW,218,16.0,22.0,63,0.00,,,0.00,,2013-01-15 22:03:00,
2013-01-15 16:12:00,29.0,18.0,30.13,SW,218,16.0,22.0,63,0.00,,,0.00,,2013-01-15 22:12:00,
2013-01-15 16:23:00,29.0,18.0,30.13,SW,218,16.0,22.0,63,0.00,,,0.00,,2013-01-15 22:23:00,
2013-01-15 16:33:00,29.0,18.0,30.13,SW,218,14.0,18.0,62,0.00,,,0.00,,2013-01-15 22:33:00,
2013-01-15 16:43:00,29.0,18.0,30.13,SW,218,14.0,18.0,62,0.00,,,0.00,,2013-01-15 22:43:00,
2013-01-15 16:52:00,29.0,18.0,30.12,SW,227,12.0,19.0,62,0.00,,,0.00,,2013-01-15 22:52:00,
2013-01-15 17:02:00,28.0,17.0,30.12,WSW,246,11.0,18.0,62,0.00,,,0.00,,2013-01-15 23:02:00,
2013-01-15 17:13:00,28.0,17.0,30.12,WSW,246,11.0,18.0,62,0.00,,,0.00,,2013-01-15 23:13:00,
2013-01-15 17:22:00,28.0,17.0,30.12,SW,235,10.0,16.0,62,0.00,,,0.00,,2013-01-15 23:22:00,
2013-01-15 17:33:00,28.0,17.0,30.12,SW,235,10.0,16.0,62,0.00,,,0.00,,2013-01-15 23:33:00,
2013-01-15 17:42:00,28.0,17.0,30.12,SW,235,10.0,16.0,62,0.00,,,0.00,,2013-01-15 23:42:00,
2013-01-15 17:53:00,27.0,16.0,30.11,SW,231,6.0,12.0,62,0.00,,,0.00,,2013-01-15 23:53:00,
2013-01-15 18:02:00,26.0,16.0,30.11,SW,228,4.0,6.0,64,0.00,,,0.00,,2013-01-16 00:02:00,
2013-01-15 18:12:00,26.0,16.0,30.11,SW,228,4.0,6.0,64,0.00,,,0.00,,2013-01-16 00:12:00,
2013-01-15 18:22:00,25.0,15.0,30.11,SW,217,3.0,6.0,65,0.00,,,0.00,,2013-01-16 00:22:00,
2013-01-15 18:33:00,25.0,15.0,30.09,SW,218,6.0,8.0,66,0.00,,,0.00,,2013-01-16 00:33:00,
2013-01-15 18:43:00,25.0,15.0,30.09,SW,218,6.0,8.0,66,0.00,,,0.00,,2013-01-16 00:43:00,
2013-01-15 18:53:00,25.0,15.0,30.09,SW,218,6.0,8.0,66,0.00,,,0.00,,2013-01-16 00:53:00,
2013-01-15 19:02:00,25.0,16.0,30.08,SSW,203,7.0,9.0,69,0.00,,,0.00,,2013-01-16 01:02:00,
2013-01-15 19:12:00,25.0,16.0,30.08,SSW,203,7.0,9.0,69,0.00,,,0.00,,2013-01-16 01:12:00,
2013-01-15 19:22:00,25.0,18.0,30.07,SSW,201,10.0,16.0,73,0.00,,,0.00,,2013-01-16 01:22:00,
2013-01-15 19:33:00,26.0,19.0,30.07,SW,222,13.0,16.0,73,0.00,,,0.00,,2013-01-16 01:33:00,
2013-01-15 19:42:00,26.0,19.0,30.07,SW,222,13.0,16.0,73,0.00,,,0.00,,2013-01-16 01:42:00,
2013-01-15 19:52:00,26.0,18.0,30.06,SW,222,12.0,21.0,72,0.00,,,0.00,,2013-01-16 01:52:00,
2013-01-15 20:03:00,26.0,18.0,30.06,SW,222,12.0,21.0,72,0.00,,,0.00,,2013-01-16 02:03:00,
2013-01-15 20:12:00,26.0,18.0,30.06,SW,222,12.0,21.0,72,0.00,,,0.00,,2013-01-16 02:12:00,
2013-01-15 20:22:00,26.0,18.0,30.05,SW,225,12.0,18.0,72,0.00,,,0.00,,2013-01-16 02:22:00,
2013-01-15 20:32:00,25.0,18.0,30.03,SW,221,11.0,18.0,73,0.00,,,0.00,,2013-01-16 02:32:00,
2013-01-15 20:42:00,25.0,18.0,30.03,SW,221,11.0,18.0,73,0.00,,,0.00,,2013-01-16 02:42:00,
2013-01-15 20:52:00,25.0,18.0,30.02,SW,223,14.0,19.0,74,0.00,,,0.00,,2013-01-16 02:52:00,
2013-01-15 21:03:00,25.0,18.0,30.01,SSW,210,13.0,18.0,74,0.00,,,0.00,,2013-01-16 03:03:00,
2013-01-15 21:12:00,25.0,18.0,30.01,SSW,210,13.0,18.0,74,0.00,,,0.00,,2013-01-16 03:12:00,
2013-01-15 21:22:00,25.0,18.0,30.01,SSW,210,13.0,18.0,74,0.00,,,0.00,,2013-01-16 03:22:00,
2013-01-15 21:32:00,24.0,17.0,29.99,SW,217,14.0,20.0,75,0.00,,,0.00,,2013-01-16 03:32:00,
2013-01-15 21:43:00,24.0,17.0,29.99,SW,217,14.0,20.0,75,0.00,,,0.00,,2013-01-16 03:43:00,
2013-01-15 21:53:00,24.0,18.0,29.98,SSW,211,14.0,26.0,76,0.00,,,0.00,,2013-01-16 03:53:00,
2013-01-15 22:02:00,24.0,18.0,29.97,SSW,210,14.0,23.0,76,0.00,,,0.00,,2013-01-16 04:02:00,
2013-01-15 22:12:00,24.0,18.0,29.97,SSW,210,14.0,23.0,76,0.00,,,0.00,,2013-01-16 04:12:00,
2013-01-15 22:22:00,24.0,18.0,29.95,SSW,210,15.0,24.0,76,0.00,,,0.00,,2013-01-16 04:22:00,
2013-01-15 22:32:00,24.0,18.0,29.95,SW,229,12.0,21.0,76,0.00,,,0.00,,2013-01-16 04:32:00,
2013-01-15 22:42:00,24.0,18.0,29.95,SW,229,12.0,21.0,76,0.00,,,0.00,,2013-01-16 04:42:00,
2013-01-15 22:52:00,24.0,18.0,29.95,SW,229,12.0,21.0,76,0.00,,,0.00,,2013-01-16 04:52:00,
2013-01-15 23:03:00,24.0,18.0,29.94,SW,214,17.0,23.0,77,0.00,,,0.00,,2013-01-16 05:03:00,
2013-01-15 23:12:00,24.0,18.0,29.94,SW,214,17.0,23.0,77,0.00,,,0.00,,2013-01-16 05:12:00,
2013-01-15 23:22:00,24.0,18.0,29.92,SW,218,15.0,20.0,77,0.00,,,0.00,,2013-01-16 05:22:00,
2013-01-15 23:32:00,24.0,18.0,29.91,SW,225,17.0,24.0,77,0.00,,,0.00,,2013-01-16 05:32:00,
2013-01-15 23:42:00,24.0,18.0,29.91,SW,225,17.0,24.0,77,0.00,,,0.00,,2013-01-16 05:42:00,
2013-01-15 23:53:00,23.0,17.0,29.90,SW,232,15.0,21.0,78,0.00,,,0.00,,2013-01-16 05:53:00,